Location: Prince Edward County
(44.0000°N, 77.2500°W)
Time: 02:00:36
(UTC+00:00)

Daily predictions for brighter satellites

Satellite Brightness Start Highest point End
(mag) Time Altitude Azimuth Time Altitude Azimuth Time Altitude Azimuth
COSMO-SKYMED 1 3.2 00:04:34 47° NW 00:04:56 48° WNW 00:08:54 10° SSW
Resurs 1-3 4.5 00:03:25 10° S 00:07:34 46° W 00:11:44 10° NNW
Cosmos 2263 Rocket 2.3 00:02:23 10° NNW 00:08:04 75° WSW 00:10:29 36° S
Nadezhda 2 Rocket 4.3 00:04:19 10° N 00:10:29 90° S 00:16:35 10° S
Cosmos 1538 Rocket 4.5 00:10:36 10° NNW 00:15:48 59° WSW 00:18:33 27° S
COSMOS 2455 4.2 00:10:32 10° S 00:13:09 25° SSE 00:13:09 25° SSE
Cosmos 1553 Rocket 4.0 00:12:36 10° SSW 00:18:44 79° W 00:21:02 41° N
Cosmos 2227 Rocket 3.8 00:16:02 10° NW 00:21:02 33° WSW 00:26:00 10° SSW
BREEZE-M DEB (TANK) 4.4 00:52:18 10° WNW 00:57:24 74° SSW 00:58:34 67° SSE
COSMOS 2455 3.5 09:16:32 51° E 09:16:32 51° E 09:21:24 10° SE
NOSS 3-1 (C) 4.5 09:14:34 47° NNE 09:16:02 54° NE 09:24:33 10° ESE
Cosmos 2333 Rocket 4.2 09:17:08 18° NNE 09:19:10 22° NE 09:23:34 10° E
CZ-3 R/B 4.3 09:25:11 34° SW 09:28:46 36° SW 09:38:29 10° SSE
Cosmos 1898 Rocket 4.3 09:30:12 48° ESE 09:30:12 48° ESE 09:34:23 10° SE
Cosmos 2322 Rocket 4.2 09:37:52 15° N 09:41:01 24° NE 09:45:32 10° ESE
Cosmos 1937 Rocket 3.8 09:49:48 60° NE 09:50:14 62° ENE 09:55:18 10° SSE
Aureole 1 Rocket 4.2 09:54:49 59° NW 09:56:06 69° WSW 10:03:30 10° S
Meteor 2-3 Rocket 4.2 09:53:39 10° S 09:59:16 60° E 10:04:52 10° NNE
Cosmos 2237 4.1 09:59:37 65° NNW 10:00:31 88° ENE 10:06:13 10° SSE
COSMOS 2406 3.1 10:01:54 41° SSW 10:04:01 89° ESE 10:09:44 10° NNE
Cosmos 1606 Rocket 4.2 10:05:51 47° S 10:05:51 47° S 10:08:58 10° S
CZ-4 R/B 4.4 10:01:29 10° NNE 10:06:01 53° E 10:10:31 10° S
SL-4 R/B 3.8 10:09:43 18° NE 10:09:43 18° NE 10:11:03 10° ENE
Cosmos 2082 Rocket 2.9 10:10:40 36° NNW 10:10:40 36° NNW 10:14:26 10° NNE
SL-16 R/B 2.6 10:06:41 29° N 10:09:33 60° ENE 10:15:08 10° SE
NOSS 2-1 (D) 4.0 10:10:52 49° S 10:10:52 49° S 10:14:49 10° SSE
USA 59 Rocket 0.7 10:11:24 45° S 10:11:24 45° S 10:15:21 10° SSE
Tiangong 0.4 10:19:19 16° S 10:19:19 16° S 10:20:22 10° SSE
NOSS 2-1 (E) 3.5 10:21:58 60° SSW 10:21:58 60° SSW 10:26:31 10° SSE
NOAA 12 4.1 10:16:57 10° NNE 10:22:16 80° ESE 10:27:30 10° SSW
NOSS 3-1 (A) 4.4 10:19:25 23° NNW 10:24:18 65° NE 10:33:07 10° SE
Cosmos 1980 Rocket 4.1 10:32:11 14° SW 10:32:11 14° SW 10:33:11 10° SSW
Cosmos 1726 Rocket 3.3 10:29:11 64° WNW 10:29:26 66° W 10:33:34 10° S
Cosmos 2278 3.7 10:30:00 22° NNW 10:33:46 79° ENE 10:39:24 10° SSE
USA 234 4.4 10:29:52 10° ENE 10:35:17 28° N 10:37:58 21° NW
FengYun 1-2 T 4.4 10:33:00 10° N 10:38:25 49° WNW 10:43:49 10° SW
Cosmos 2369 4.4 10:39:09 32° WSW 10:39:09 32° WSW 10:44:06 10° SSW
NOSS 2-1 (C) 4.1 10:40:19 36° WSW 10:40:20 36° WSW 10:44:53 10° S
Cosmos 841 Rocket 3.9 10:40:50 38° WNW 10:41:04 38° WNW 10:45:58 10° N
BREEZE-M DEB (TANK) 3.8 10:42:36 20° NE 10:42:36 20° NE 10:43:34 10° ENE
Cosmos 2026 Rocket 3.8 10:40:00 10° SSW 10:46:02 72° W 10:52:08 10° N
BREEZE-M DEB (TANK) 4.4 10:44:56 27° W 10:47:07 35° SW 10:50:31 10° SSE
Cosmos 1892 Rocket 3.7 10:46:06 10° SSW 10:50:18 48° WNW 10:54:35 10° N
Cosmos-2242 2.8 10:49:33 11° N 10:53:35 83° W 10:57:46 10° S
COSMO-SKYMED 1 2.4 10:50:59 10° S 10:55:03 61° W 10:57:58 18° NNW
COSMOS 2455 3.8 10:59:43 23° W 11:00:57 25° WSW 11:05:42 10° SSW
Cosmos 2360 Rocket 2.3 10:56:29 11° NNW 11:01:58 78° ENE 11:07:35 10° SSE
Cosmos 2333 Rocket 2.2 10:59:11 15° NNW 11:04:03 71° WSW 11:09:44 10° SSE
Cosmos 1484 Rocket 2.3 11:08:35 10° N 11:11:59 70° WNW 11:15:20 10° SSW
Cosmos 1553 Rocket 4.1 11:06:37 10° N 11:13:03 89° W 11:19:28 10° S
Meteor 2-2 Rocket 4.3 11:07:39 10° NNW 11:13:15 58° W 11:18:55 10° S
Cosmos 1092 Rocket 4.1 11:07:11 10° SSW 11:13:17 51° WNW 11:19:21 10° N
IRS-1D 4.2 11:11:09 10° N 11:15:31 31° WNW 11:19:57 10° SW
Cosmos 1437 Rocket 4.4 11:13:27 10° N 11:16:32 30° ENE 11:19:36 10° SE
IGS 5A 3.2 11:12:38 10° N 11:16:39 80° WNW 11:20:39 10° SSW
Cosmos 1743 2.8 11:13:56 10° S 11:17:07 61° E 11:20:20 10° NNE
Cosmos 2219 Rocket 2.6 11:13:40 10° NNW 11:19:19 65° ENE 11:24:53 10° SE
Cosmos 1812 Rocket 4.4 11:15:19 10° N 11:19:32 52° ENE 11:23:46 10° SSE
Cosmos 1602 Rocket 4.0 11:19:39 10° S 11:24:02 65° E 11:28:27 10° NNE
Cosmos 2322 Rocket 2.3 11:19:53 10° NNW 11:25:31 62° WSW 11:31:05 10° S
Cosmos 2058 Rocket 3.8 11:23:51 10° NNW 11:27:48 32° W 11:31:43 10° SSW
Helios 1A Rocket 3.7 11:25:51 10° SSW 11:28:33 22° W 11:30:07 16° WNW
Okean 1 3.8 11:28:27 12° NNW 11:31:20 30° W 11:34:28 10° SSW
ATLAS 3B R/B 4.0 11:24:27 10° NNW 11:31:44 39° NE 11:38:43 10° ESE
Meteor 2-6 Rocket 4.3 11:27:30 10° NNW 11:33:28 72° W 11:39:20 10° S
ISS -0.1 11:38:30 10° SSE 11:39:39 11° SE 11:40:48 10° ESE
ARIANE 5 R/B 3.0 11:38:24 10° NNE 11:43:37 68° ESE 11:48:48 10° S
Cosmos 2333 4.3 11:38:10 10° NNW 11:43:50 63° WSW 11:49:24 10° S
Cosmos 2266 Rocket 4.1 11:38:01 10° S 11:44:25 87° E 11:50:47 10° N
SL-4 R/B 1.4 11:43:26 12° NW 11:46:23 71° NNE 11:49:32 10° ESE
CZ-2D R/B 2.7 11:44:03 10° NNE 11:47:14 89° N 11:50:24 10° SSW
SL-08 ROCKET BODY 4.5 11:42:49 10° SSW 11:48:31 53° WNW 11:54:14 10° N
SAR-Lupe-4 3.6 11:45:52 10° NNE 11:49:26 83° ESE 11:52:58 10° SSW
Cosmos 1417 Rocket 4.5 11:44:48 10° N 11:50:57 82° W 11:57:06 10° S
Cosmos 405 Rocket 3.4 11:50:13 10° SW 11:52:55 24° WNW 11:55:38 10° NNW
SL-16 R/B 3.5 11:49:00 10° NW 11:53:08 21° W 11:57:15 10° SSW
Cosmos 2151 2.9 11:50:45 10° SSW 11:54:45 59° W 11:58:49 10° N
